Location: St. Louis
(38.6270°N, 90.1994°W)
Time: 04:43:09
(UTC-05:00)

ISS - Pass Details

Date: 05 February 2014
Orbit: 401 x 404 km, 51.6° (Epoch: 31 July)

Event Time Altitude Azimuth Distance (km) Brightness Sun altitude
Rises 19:31:15 0° 226° (SW) 2,310 1.2 -24.5°
Reaches altitude 10° 19:33:19 10° 224° (SW) 1,457 0.0 -24.9°
Enters shadow 19:34:32 21° 222° (SW) 972 -1.0 -25.2°
